• In Netherlands
  • List of Countries
  • For 7 days
  • Water Temperature
  • Satellite Maps
  • Weather Map
  • Weather Widgets
  • user-avatar
    Login

    Hourly Weather Santa Fe

    Today, 28 February, Tuesday

    Time Temperature Precipitation Wind Pressure Humidity
    00:00 +29°C° 0 mm 2 mps 754 mmHg 55%
    01:00 +28°C° 0 mm 2 mps 753 mmHg 56%
    02:00 +28°C° 0 mm 2 mps 753 mmHg 57%
    03:00 +28°C° 0 mm 2 mps 753 mmHg 58%
    04:00 +28°C° 0 mm 2 mps 753 mmHg 59%
    05:00 +27°C° 0 mm 2 mps 753 mmHg 60%
    06:00 +29°C° 0 mm 2 mps 753 mmHg 57%
    07:00 +30°C° 0 mm 2 mps 753 mmHg 54%
    08:00 +31°C° 0 mm 2 mps 754 mmHg 52%
    09:00 +34°C° 0 mm 2 mps 753 mmHg 46%
    10:00 +36°C° 0 mm 3 mps 753 mmHg 40%
    11:00 +38°C° 0 mm 4 mps 753 mmHg 34%
    12:00 +39°C° 0 mm 3 mps 752 mmHg 30%
    13:00 +40°C° 0 mm 3 mps 752 mmHg 26%
    14:00 +40°C° 0 mm 3 mps 751 mmHg 22%
    15:00 +40°C° 0 mm 3 mps 750 mmHg 21%
    16:00 +40°C° 0 mm 3 mps 750 mmHg 21%
    17:00 +40°C° 0 mm 2 mps 749 mmHg 21%
    18:00 +37°C° 0 mm 3 mps 749 mmHg 26%
    19:00 +34°C° 0 mm 3 mps 750 mmHg 31%
    20:00 +31°C° 0 mm 3 mps 750 mmHg 36%
    21:00 +30°C° 0 mm 3 mps 750 mmHg 38%
    22:00 +29°C° 0 mm 3 mps 750 mmHg 41%
    23:00 +29°C° 0 mm 3 mps 751 mmHg 44%

    Tomorrow, 1 March, Wednesday

    Time Temperature Precipitation Wind Pressure Humidity
    00:00 +28°C° 0 mm 3 mps 750 mmHg 45%
    01:00 +28°C° 0 mm 3 mps 750 mmHg 46%
    02:00 +28°C° 0 mm 3 mps 750 mmHg 48%
    03:00 +27°C° 0 mm 3 mps 750 mmHg 50%
    04:00 +27°C° 0 mm 3 mps 750 mmHg 53%
    05:00 +27°C° 0 mm 3 mps 750 mmHg 56%
    06:00 +29°C° 0 mm 3 mps 750 mmHg 54%
    07:00 +30°C° 0 mm 3 mps 751 mmHg 52%
    08:00 +33°C° 0 mm 3 mps 751 mmHg 50%
    09:00 +35°C° 0 mm 3 mps 751 mmHg 43%
    10:00 +38°C° 0 mm 3 mps 751 mmHg 37%
    11:00 +40°C° 0 mm 3 mps 751 mmHg 30%
    12:00 +42°C° 0 mm 3 mps 750 mmHg 28%
    13:00 +43°C° 0 mm 3 mps 750 mmHg 25%
    14:00 +44°C° 0 mm 3 mps 749 mmHg 23%
    15:00 +42°C° 0 mm 3 mps 749 mmHg 25%
    16:00 +40°C° 0 mm 3 mps 748 mmHg 27%
    17:00 +39°C° 0 mm 2 mps 748 mmHg 28%
    18:00 +38°C° 0 mm 3 mps 748 mmHg 31%
    19:00 +36°C° 0 mm 3 mps 748 mmHg 34%
    20:00 +34°C° 0 mm 4 mps 749 mmHg 37%
    21:00 +34°C° 0 mm 4 mps 749 mmHg 38%
    22:00 +33°C° 0 mm 4 mps 749 mmHg 39%
    23:00 +33°C° 0 mm 5 mps 749 mmHg 41%

    Day after tomorrow, 2 March, Thursday

    Time Temperature Precipitation Wind Pressure Humidity
    00:00 +32°C° 0 mm 4 mps 749 mmHg 42%
    01:00 +32°C° 0 mm 4 mps 749 mmHg 44%
    02:00 +30°C° 0 mm 4 mps 749 mmHg 46%
    03:00 +30°C° 0 mm 4 mps 749 mmHg 50%
    04:00 +29°C° 0 mm 4 mps 749 mmHg 54%
    05:00 +29°C° 0 mm 3 mps 749 mmHg 58%
    06:00 +30°C° 0 mm 5 mps 749 mmHg 56%
    07:00 +33°C° 0 mm 6 mps 750 mmHg 55%
    08:00 +34°C° 0 mm 7 mps 750 mmHg 53%
    09:00 +37°C° 0 mm 8 mps 750 mmHg 48%
    10:00 +39°C° 0 mm 8 mps 750 mmHg 42%
    11:00 +41°C° 0 mm 8 mps 750 mmHg 36%
    12:00 +41°C° 0 mm 7 mps 749 mmHg 34%
    13:00 +43°C° 0 mm 7 mps 749 mmHg 32%
    14:00 +44°C° 0 mm 6 mps 748 mmHg 30%
    15:00 +42°C° 0 mm 5 mps 748 mmHg 32%
    16:00 +41°C° 0 mm 4 mps 748 mmHg 33%
    17:00 +39°C° 0 mm 3 mps 747 mmHg 35%
    18:00 +37°C° 0.7 mm 3 mps 748 mmHg 44%
    19:00 +35°C° 0.7 mm 3 mps 749 mmHg 54%
    20:00 +31°C° 0.7 mm 3 mps 750 mmHg 63%
    21:00 +29°C° 2.3 mm 4 mps 751 mmHg 73%
    22:00 +27°C° 2.3 mm 6 mps 752 mmHg 82%
    23:00 +26°C° 2.3 mm 7 mps 753 mmHg 92%

    3 March, Friday

    Time Temperature Precipitation Wind Pressure Humidity
    00:00 +24°C° 1.5 mm 7 mps 753 mmHg 92%
    01:00 +24°C° 1.5 mm 6 mps 753 mmHg 93%
    02:00 +24°C° 1.5 mm 6 mps 754 mmHg 93%
    03:00 +24°C° 1.9 mm 6 mps 754 mmHg 93%
    04:00 +23°C° 1.9 mm 6 mps 754 mmHg 93%
    05:00 +23°C° 1.9 mm 6 mps 755 mmHg 93%
    06:00 +23°C° 1.2 mm 6 mps 755 mmHg 93%
    07:00 +22°C° 1.2 mm 6 mps 756 mmHg 93%
    08:00 +22°C° 1.2 mm 6 mps 756 mmHg 92%
    09:00 +22°C° 0.3 mm 6 mps 757 mmHg 90%
    10:00 +23°C° 0.3 mm 6 mps 757 mmHg 88%
    11:00 +23°C° 0.3 mm 6 mps 757 mmHg 85%
    12:00 +23°C° 0.4 mm 6 mps 756 mmHg 83%
    13:00 +23°C° 0.4 mm 5 mps 756 mmHg 82%
    14:00 +23°C° 0.4 mm 5 mps 756 mmHg 80%
    15:00 +23°C° 0.9 mm 5 mps 755 mmHg 82%
    16:00 +23°C° 0.9 mm 5 mps 755 mmHg 85%
    17:00 +22°C° 0.9 mm 5 mps 755 mmHg 87%
    18:00 +22°C° 0.1 mm 5 mps 756 mmHg 87%
    19:00 +22°C° 0.1 mm 5 mps 756 mmHg 88%
    20:00 +22°C° 0.1 mm 4 mps 756 mmHg 88%
    21:00 +22°C° 0.2 mm 4 mps 757 mmHg 89%
    22:00 +22°C° 0.2 mm 4 mps 757 mmHg 89%
    23:00 +22°C° 0.2 mm 4 mps 757 mmHg 90%

    4 March, Saturday

    Time Temperature Precipitation Wind Pressure Humidity
    00:00 +22°C° 0.1 mm 4 mps 756 mmHg 90%
    01:00 +22°C° 0.1 mm 5 mps 756 mmHg 90%
    02:00 +21°C° 0.1 mm 5 mps 756 mmHg 91%
    03:00 +21°C° 0.1 mm 5 mps 756 mmHg 91%
    04:00 +21°C° 0.1 mm 5 mps 756 mmHg 91%
    05:00 +20°C° 0.1 mm 5 mps 756 mmHg 91%
    06:00 +21°C° 0.1 mm 5 mps 756 mmHg 91%
    07:00 +21°C° 0.1 mm 5 mps 756 mmHg 91%
    08:00 +21°C° 0.1 mm 5 mps 757 mmHg 90%
    09:00 +22°C° 0.1 mm 5 mps 756 mmHg 88%
    10:00 +22°C° 0.1 mm 5 mps 756 mmHg 85%
    11:00 +23°C° 0.1 mm 5 mps 756 mmHg 82%
    12:00 +25°C° 0 mm 5 mps 756 mmHg 78%
    13:00 +26°C° 0 mm 6 mps 755 mmHg 75%
    14:00 +27°C° 0 mm 6 mps 754 mmHg 71%
    15:00 +27°C° 0 mm 6 mps 754 mmHg 70%
    16:00 +27°C° 0 mm 6 mps 754 mmHg 70%
    17:00 +28°C° 0 mm 6 mps 754 mmHg 69%
    18:00 +26°C° 0 mm 6 mps 754 mmHg 72%
    19:00 +25°C° 0 mm 5 mps 754 mmHg 75%
    20:00 +23°C° 0 mm 4 mps 754 mmHg 78%
    21:00 +23°C° 0 mm 4 mps 755 mmHg 78%
    22:00 +23°C° 0 mm 4 mps 755 mmHg 77%
    23:00 +22°C° 0 mm 4 mps 755 mmHg 77%

    5 March, Sunday

    Time Temperature Precipitation Wind Pressure Humidity
    00:00 +22°C° 0 mm 4 mps 755 mmHg 77%
    01:00 +21°C° 0 mm 4 mps 755 mmHg 77%
    02:00 +21°C° 0 mm 4 mps 755 mmHg 77%
    03:00 +21°C° 0 mm 3 mps 755 mmHg 78%
    04:00 +20°C° 0 mm 3 mps 756 mmHg 79%
    05:00 +20°C° 0 mm 3 mps 756 mmHg 79%
    06:00 +21°C° 0 mm 4 mps 756 mmHg 76%
    07:00 +21°C° 0 mm 4 mps 756 mmHg 73%
    08:00 +22°C° 0 mm 5 mps 757 mmHg 70%
    09:00 +25°C° 0 mm 4 mps 757 mmHg 65%
    10:00 +27°C° 0 mm 4 mps 757 mmHg 60%
    11:00 +28°C° 0 mm 3 mps 757 mmHg 55%
    12:00 +29°C° 0 mm 3 mps 756 mmHg 53%
    13:00 +30°C° 0 mm 4 mps 756 mmHg 51%
    14:00 +32°C° 0 mm 4 mps 755 mmHg 49%
    15:00 +32°C° 0 mm 4 mps 755 mmHg 49%
    16:00 +30°C° 0 mm 4 mps 755 mmHg 50%
    17:00 +30°C° 0 mm 4 mps 755 mmHg 51%
    18:00 +28°C° 0 mm 4 mps 756 mmHg 55%
    19:00 +26°C° 0 mm 3 mps 756 mmHg 60%
    20:00 +25°C° 0 mm 3 mps 757 mmHg 65%
    21:00 +24°C° 0 mm 2 mps 757 mmHg 66%
    22:00 +23°C° 0 mm 2 mps 758 mmHg 68%
    23:00 +23°C° 0 mm 2 mps 758 mmHg 69%
    Show more